Time,TemperatureF,DewpointF,PressureIn,WindDirection,WindDirectionDegrees,WindSpeedMPH,WindSpeedGustMPH,Humidity,HourlyPrecipIn,Conditions,Clouds,dailyrainin,SoftwareType,DateUTC
2013-03-31 00:13:00,45.4,42.0,29.86,West,259,0.0,4.0,86,0.00,,,0.00,weatherlink.com 1.10,2013-03-31 05:13:00,
2013-03-31 00:28:00,45.1,42.0,29.85,WSW,258,0.0,5.0,90,0.00,,,0.00,weatherlink.com 1.10,2013-03-31 05:28:00,
2013-03-31 00:43:00,44.6,43.0,29.84,SW,224,2.0,5.0,92,0.00,,,0.00,weatherlink.com 1.10,2013-03-31 05:43:00,
2013-03-31 00:58:00,44.3,42.0,29.84,SSW,208,1.0,4.0,93,0.00,,,0.00,weatherlink.com 1.10,2013-03-31 05:58:00,
2013-03-31 01:13:00,44.3,43.0,29.83,SW,224,1.0,5.0,94,0.00,,,0.00,weatherlink.com 1.10,2013-03-31 06:13:00,
2013-03-31 01:28:00,44.2,43.0,29.83,WNW,282,4.0,4.0,95,0.00,,,0.00,weatherlink.com 1.10,2013-03-31 06:28:00,
2013-03-31 01:43:00,44.2,43.0,29.83,WSW,245,2.0,5.0,95,0.00,,,0.00,weatherlink.com 1.10,2013-03-31 06:43:00,
2013-03-31 01:58:00,44.2,43.0,29.82,West,264,3.0,4.0,96,0.00,,,0.00,weatherlink.com 1.10,2013-03-31 06:58:00,
2013-03-31 02:13:00,44.3,43.0,29.81,West,261,1.0,6.0,96,0.00,,,0.00,weatherlink.com 1.10,2013-03-31 07:13:00,
2013-03-31 02:28:00,44.5,44.0,29.81,West,269,3.0,7.0,96,0.00,,,0.00,weatherlink.com 1.10,2013-03-31 07:28:00,
2013-03-31 02:43:00,44.4,43.0,29.81,WNW,287,1.0,6.0,96,0.00,,,0.00,weatherlink.com 1.10,2013-03-31 07:43:00,
2013-03-31 02:58:00,44.2,43.0,29.81,WSW,254,4.0,8.0,96,0.00,,,0.00,weatherlink.com 1.10,2013-03-31 07:58:00,
2013-03-31 03:13:00,44.1,43.0,29.81,West,269,0.0,8.0,96,0.00,,,0.00,weatherlink.com 1.10,2013-03-31 08:13:00,
2013-03-31 03:28:00,44.0,43.0,29.81,West,261,1.0,6.0,96,0.00,,,0.00,weatherlink.com 1.10,2013-03-31 08:28:00,
2013-03-31 03:43:00,43.8,43.0,29.80,West,276,1.0,7.0,96,0.00,,,0.00,weatherlink.com 1.10,2013-03-31 08:43:00,
2013-03-31 03:58:00,43.7,43.0,29.80,West,266,4.0,7.0,96,0.00,,,0.00,weatherlink.com 1.10,2013-03-31 08:58:00,
2013-03-31 04:13:00,43.5,43.0,29.80,West,266,1.0,5.0,96,0.00,,,0.00,weatherlink.com 1.10,2013-03-31 09:13:00,
2013-03-31 04:28:00,43.1,42.0,29.80,WNW,286,1.0,3.0,95,0.00,,,0.00,weatherlink.com 1.10,2013-03-31 09:28:00,
2013-03-31 04:43:00,42.7,41.0,29.80,WNW,302,0.0,5.0,95,0.00,,,0.00,weatherlink.com 1.10,2013-03-31 09:43:00,
2013-03-31 04:58:00,41.8,40.0,29.80,NW,316,2.0,4.0,93,0.00,,,0.00,weatherlink.com 1.10,2013-03-31 09:58:00,
2013-03-31 05:14:00,41.1,39.0,29.80,West,280,2.0,5.0,92,0.00,,,0.00,weatherlink.com 1.10,2013-03-31 10:14:00,
2013-03-31 05:28:00,40.7,39.0,29.80,WSW,255,2.0,4.0,93,0.00,,,0.00,weatherlink.com 1.10,2013-03-31 10:28:00,
2013-03-31 05:44:00,40.0,38.0,29.80,West,267,1.0,5.0,92,0.00,,,0.00,weatherlink.com 1.10,2013-03-31 10:44:00,
2013-03-31 05:59:00,39.2,37.0,29.81,NNW,333,0.0,3.0,93,0.00,,,0.00,weatherlink.com 1.10,2013-03-31 10:59:00,
2013-03-31 06:15:00,38.8,37.0,29.81,NW,309,0.0,3.0,93,0.00,,,0.00,weatherlink.com 1.10,2013-03-31 11:15:00,
2013-03-31 06:29:00,38.8,37.0,29.81,NW,306,0.0,3.0,93,0.00,,,0.00,weatherlink.com 1.10,2013-03-31 11:29:00,
2013-03-31 06:44:00,39.1,38.0,29.81,West,264,2.0,6.0,94,0.00,,,0.00,weatherlink.com 1.10,2013-03-31 11:44:00,
2013-03-31 06:59:00,39.5,38.0,29.81,West,268,0.0,7.0,93,0.00,,,0.00,weatherlink.com 1.10,2013-03-31 11:59:00,
2013-03-31 07:14:00,39.7,38.0,29.81,WNW,284,0.0,6.0,93,0.00,,,0.00,weatherlink.com 1.10,2013-03-31 12:14:00,
2013-03-31 07:29:00,39.9,38.0,29.81,West,270,1.0,7.0,93,0.00,,,0.00,weatherlink.com 1.10,2013-03-31 12:29:00,
2013-03-31 07:44:00,40.1,38.0,29.80,West,264,2.0,5.0,93,0.00,,,0.00,weatherlink.com 1.10,2013-03-31 12:44:00,
2013-03-31 07:59:00,40.3,39.0,29.80,West,261,5.0,11.0,94,0.00,,,0.00,weatherlink.com 1.10,2013-03-31 12:59:00,
2013-03-31 08:14:00,40.5,39.0,29.80,West,273,1.0,10.0,94,0.00,,,0.00,weatherlink.com 1.10,2013-03-31 13:14:00,
2013-03-31 08:29:00,40.6,39.0,29.80,WNW,284,2.0,10.0,93,0.00,,,0.00,weatherlink.com 1.10,2013-03-31 13:29:00,
2013-03-31 08:44:00,40.8,39.0,29.80,WSW,244,6.0,10.0,92,0.00,,,0.00,weatherlink.com 1.10,2013-03-31 13:44:00,
2013-03-31 08:59:00,41.1,39.0,29.80,WNW,289,3.0,8.0,92,0.00,,,0.00,weatherlink.com 1.10,2013-03-31 13:59:00,
2013-03-31 09:14:00,41.8,39.0,29.80,West,266,3.0,10.0,91,0.00,,,0.00,weatherlink.com 1.10,2013-03-31 14:14:00,
2013-03-31 09:29:00,42.2,40.0,29.80,SSW,197,4.0,12.0,90,0.00,,,0.00,weatherlink.com 1.10,2013-03-31 14:29:00,
2013-03-31 09:44:00,43.1,40.0,29.79,West,264,6.0,8.0,89,0.00,,,0.00,weatherlink.com 1.10,2013-03-31 14:44:00,
2013-03-31 09:59:00,43.6,40.0,29.79,WSW,240,2.0,10.0,87,0.00,,,0.00,weatherlink.com 1.10,2013-03-31 14:59:00,
2013-03-31 10:14:00,44.5,41.0,29.79,SSW,201,4.0,7.0,86,0.00,,,0.00,weatherlink.com 1.10,2013-03-31 15:14:00,
2013-03-31 10:29:00,45.7,42.0,29.78,SW,214,5.0,10.0,85,0.00,,,0.00,weatherlink.com 1.10,2013-03-31 15:29:00,
2013-03-31 10:44:00,46.9,42.0,29.78,NW,311,1.0,9.0,83,0.00,,,0.00,weatherlink.com 1.10,2013-03-31 15:44:00,
2013-03-31 10:59:00,48.6,42.0,29.78,West,266,0.0,8.0,78,0.00,,,0.00,weatherlink.com 1.10,2013-03-31 15:59:00,
2013-03-31 11:14:00,49.5,42.0,29.78,West,267,3.0,9.0,76,0.00,,,0.00,weatherlink.com 1.10,2013-03-31 16:14:00,
2013-03-31 11:29:00,50.7,42.0,29.77,West,275,5.0,14.0,73,0.00,,,0.00,weatherlink.com 1.10,2013-03-31 16:29:00,
2013-03-31 11:44:00,52.3,43.0,29.77,SSW,210,7.0,11.0,70,0.00,,,0.00,weatherlink.com 1.10,2013-03-31 16:44:00,
2013-03-31 11:59:00,52.7,42.0,29.77,WSW,246,10.0,13.0,66,0.00,,,0.00,weatherlink.com 1.10,2013-03-31 16:59:00,
2013-03-31 12:14:00,52.5,41.0,29.76,WSW,258,8.0,15.0,64,0.00,,,0.00,weatherlink.com 1.10,2013-03-31 17:14:00,
2013-03-31 12:29:00,53.1,42.0,29.75,West,269,6.0,11.0,65,0.00,,,0.00,weatherlink.com 1.10,2013-03-31 17:29:00,
2013-03-31 12:44:00,53.2,41.0,29.75,SW,228,5.0,14.0,64,0.00,,,0.00,weatherlink.com 1.10,2013-03-31 17:44:00,
2013-03-31 12:59:00,53.6,42.0,29.75,WSW,244,6.0,14.0,64,0.00,,,0.00,weatherlink.com 1.10,2013-03-31 17:59:00,
2013-03-31 13:14:00,54.5,41.0,29.75,WNW,288,6.0,16.0,60,0.00,,,0.00,weatherlink.com 1.10,2013-03-31 18:14:00,
2013-03-31 13:29:00,54.9,39.0,29.74,West,264,8.0,15.0,56,0.00,,,0.00,weatherlink.com 1.10,2013-03-31 18:29:00,
2013-03-31 13:44:00,55.4,39.0,29.74,WSW,240,6.0,14.0,55,0.00,,,0.00,weatherlink.com 1.10,2013-03-31 18:44:00,
2013-03-31 13:59:00,55.3,39.0,29.73,North,355,3.0,18.0,54,0.00,,,0.00,weatherlink.com 1.10,2013-03-31 18:59:00,
2013-03-31 14:14:00,55.0,39.0,29.74,West,279,2.0,15.0,55,0.00,,,0.00,weatherlink.com 1.10,2013-03-31 19:14:00,
2013-03-31 14:29:00,54.3,38.0,29.74,West,271,13.0,18.0,54,0.00,,,0.00,weatherlink.com 1.10,2013-03-31 19:29:00,
2013-03-31 14:44:00,54.9,38.0,29.74,West,279,5.0,18.0,54,0.00,,,0.00,weatherlink.com 1.10,2013-03-31 19:44:00,
2013-03-31 14:59:00,54.9,37.0,29.74,SW,228,6.0,17.0,52,0.00,,,0.00,weatherlink.com 1.10,2013-03-31 19:59:00,
2013-03-31 15:14:00,54.3,33.0,29.75,NW,309,7.0,16.0,45,0.00,,,0.00,weatherlink.com 1.10,2013-03-31 20:14:00,
2013-03-31 15:29:00,53.4,32.0,29.75,NNW,346,8.0,18.0,44,0.00,,,0.00,weatherlink.com 1.10,2013-03-31 20:29:00,
2013-03-31 15:44:00,51.8,35.0,29.76,WNW,295,4.0,15.0,53,0.00,,,0.00,weatherlink.com 1.10,2013-03-31 20:44:00,
2013-03-31 15:59:00,50.7,38.0,29.77,WNW,300,3.0,13.0,63,0.00,,,0.00,weatherlink.com 1.10,2013-03-31 20:59:00,
2013-03-31 16:15:00,49.3,37.0,29.78,WSW,246,4.0,14.0,62,0.00,,,0.00,weatherlink.com 1.10,2013-03-31 21:15:00,
2013-03-31 16:30:00,48.0,36.0,29.78,NNW,336,4.0,14.0,63,0.00,,,0.00,weatherlink.com 1.10,2013-03-31 21:30:00,
2013-03-31 16:45:00,47.5,34.0,29.78,NNW,333,9.0,18.0,60,0.00,,,0.00,weatherlink.com 1.10,2013-03-31 21:45:00,
2013-03-31 17:00:00,47.3,33.0,29.79,NNW,340,9.0,15.0,59,0.00,,,0.00,weatherlink.com 1.10,2013-03-31 22:00:00,
2013-03-31 17:15:00,46.9,33.0,29.79,WNW,293,3.0,12.0,60,0.00,,,0.00,weatherlink.com 1.10,2013-03-31 22:15:00,
2013-03-31 17:30:00,47.3,33.0,29.79,NNW,339,1.0,16.0,59,0.00,,,0.00,weatherlink.com 1.10,2013-03-31 22:30:00,
2013-03-31 17:45:00,47.2,34.0,29.80,NNW,332,10.0,10.0,60,0.00,,,0.00,weatherlink.com 1.10,2013-03-31 22:45:00,
2013-03-31 18:00:00,46.3,35.0,29.80,NNW,331,3.0,12.0,64,0.00,,,0.00,weatherlink.com 1.10,2013-03-31 23:00:00,
2013-03-31 18:15:00,44.8,34.0,29.81,NW,323,8.0,14.0,67,0.00,,,0.00,weatherlink.com 1.10,2013-03-31 23:15:00,
2013-03-31 18:30:00,43.3,33.0,29.82,WSW,254,3.0,11.0,67,0.00,,,0.00,weatherlink.com 1.10,2013-03-31 23:30:00,
2013-03-31 18:45:00,42.3,31.0,29.83,NNW,344,5.0,11.0,64,0.00,,,0.00,weatherlink.com 1.10,2013-03-31 23:45:00,
2013-03-31 19:00:00,41.2,29.0,29.84,NNW,334,3.0,13.0,63,0.00,,,0.00,weatherlink.com 1.10,2013-04-01 00:00:00,
2013-03-31 19:15:00,40.2,30.0,29.84,WNW,291,3.0,11.0,66,0.00,,,0.00,weatherlink.com 1.10,2013-04-01 00:15:00,
2013-03-31 19:30:00,39.7,30.0,29.85,NNW,340,2.0,7.0,68,0.00,,,0.00,weatherlink.com 1.10,2013-04-01 00:30:00,
2013-03-31 19:45:00,39.8,30.0,29.85,NW,312,2.0,6.0,69,0.00,,,0.00,weatherlink.com 1.10,2013-04-01 00:45:00,
2013-03-31 20:00:00,39.5,31.0,29.85,NW,323,2.0,8.0,71,0.00,,,0.00,weatherlink.com 1.10,2013-04-01 01:00:00,
2013-03-31 20:15:00,39.3,31.0,29.86,NW,321,2.0,9.0,71,0.00,,,0.00,weatherlink.com 1.10,2013-04-01 01:15:00,
2013-03-31 20:30:00,38.8,30.0,29.86,WSW,256,6.0,10.0,71,0.00,,,0.00,weatherlink.com 1.10,2013-04-01 01:30:00,
2013-03-31 20:45:00,38.4,30.0,29.87,WNW,290,1.0,8.0,71,0.00,,,0.00,weatherlink.com 1.10,2013-04-01 01:45:00,
2013-03-31 21:00:00,38.1,30.0,29.87,WNW,296,4.0,8.0,72,0.00,,,0.00,weatherlink.com 1.10,2013-04-01 02:00:00,
2013-03-31 21:15:00,37.8,30.0,29.88,WNW,303,1.0,9.0,72,0.00,,,0.00,weatherlink.com 1.10,2013-04-01 02:15:00,
2013-03-31 21:31:00,37.6,29.0,29.89,West,260,0.0,9.0,72,0.00,,,0.00,weatherlink.com 1.10,2013-04-01 02:31:00,
2013-03-31 21:46:00,37.2,29.0,29.89,WSW,257,5.0,5.0,72,0.00,,,0.00,weatherlink.com 1.10,2013-04-01 02:46:00,
2013-03-31 22:01:00,36.9,29.0,29.90,WNW,298,2.0,8.0,73,0.00,,,0.00,weatherlink.com 1.10,2013-04-01 03:01:00,
2013-03-31 22:16:00,36.7,29.0,29.90,NNW,346,0.0,5.0,74,0.00,,,0.00,weatherlink.com 1.10,2013-04-01 03:16:00,
2013-03-31 22:31:00,36.4,29.0,29.90,WNW,301,2.0,4.0,75,0.00,,,0.00,weatherlink.com 1.10,2013-04-01 03:31:00,
2013-03-31 22:46:00,36.0,29.0,29.91,West,279,3.0,3.0,76,0.00,,,0.00,weatherlink.com 1.10,2013-04-01 03:46:00,
2013-03-31 23:01:00,35.5,29.0,29.91,NNW,340,1.0,8.0,76,0.00,,,0.00,weatherlink.com 1.10,2013-04-01 04:01:00,